« Back
NWS Peachtree City, Ga » Text Product » GA Regional Weather Roundup


Printer-friendly Version
Current Version              Previous Versions:   1  2  3  4  5  6  7  8  9  

Regional Weather Roundup

358
ASUS42 KFFC 210403
RWRGA
WEATHER ROUNDUP FOR GEORGIA
NATIONAL WEATHER SERVICE PEACHTREE CITY GA
1100 PM EST SAT DEC 20 2014

NOTE: "FAIR" INDICATES FEW OR NO CLOUDS BELOW 12,000 FEET WITH NO
SIGNIFICANT WEATHER AND/OR OBSTRUCTIONS TO VISIBILITY.

* = USE WITH CAUTION. THE STATIONS MARKED WITH AN ASTERISK MAY NOT
REPORT WEATHER SUCH AS PRECIPITATION, FOG, OR THUNDER AND ARE NOT
QUALITY CONTROLLED BY NWS.

THE REMARK "TC" DENOTES TEMPERATURE READING IN DEGREES CELSIUS.

GAZ001>058-210500-
NORTH GEORGIA

CITY           SKY/WX    TMP DP  RH WIND       PRES   REMARKS
ATLANTA        CLOUDY    48  44  86 E6        30.20S FOG
ATHENS         CLOUDY    45  43  93 E5        30.22S FOG
CHAMBLEE       CLOUDY    46  43  89 CALM      30.20S FOG
PEACHTREE CITY CLOUDY    49  46  90 E7        30.21R FOG
ROME           PTCLDY    39  38  96 CALM      30.22R FOG
WEST ATLANTA   CLOUDY    48  44  86 CALM      30.21R
GAINESVILLE    CLOUDY    43  41  93 E6        30.22S FOG
CARTERSVILLE   CLOUDY    45  41  86 CALM      30.22S


CITY           SKY/WX    TMP DP  RH WIND       PRES   REMARKS
DALTON*        CLOUDY    37  36  93 CALM      30.22S
KENNESAW*      CLOUDY    46  43  87 CALM      30.22S FOG
$$

GAZ059>098-102>109-210500-
CENTRAL GEORGIA

CITY           SKY/WX    TMP DP  RH WIND       PRES   REMARKS
AUGUSTA-BUSH   CLOUDY    48  45  89 E8        30.24R
AUGUSTA-DANIEL CLOUDY    48  47  96 NE6       30.24R FOG
COLUMBUS       CLOUDY    51  48  89 E7        30.18S
MACON          CLOUDY    51  51 100 NE6       30.19F FOG


CITY           SKY/WX    TMP DP  RH WIND       PRES   REMARKS
LAGRANGE*      CLOUDY    53  50  90 CALM      30.19S
SYLVANIA*      CLOUDY    49  49 100 NE6       30.22S FOG
MILLEDGEVILLE* CLOUDY    50  50 100 CALM      30.22R FOG
$$

GAZ099>101-110>166-210500-
SOUTH GEORGIA

CITY           SKY/WX    TMP DP  RH WIND       PRES   REMARKS
SAVANNAH       LGT RAIN  53  50  89 N8        30.20F
VALDOSTA       CLOUDY    56  51  84 NE6       30.15S
ALMA           CLOUDY    54  51  90 NE5       30.17S
ST SIMONS      CLOUDY    56  53  90 NE14G23   30.16S
FT STEWART     LGT RAIN  54  51  90 N9        30.18S
ALBANY         CLOUDY    53  51  93 NE7       30.18S
BRUNSWICK      CLOUDY    55  52  88 NE7G16    30.17S


CITY           SKY/WX    TMP DP  RH WIND       PRES   REMARKS
BAINBRIDGE*    MOCLDY    59  55  88 NE9       30.14F
MOULTRIE*      CLOUDY    54  52  94 E5        30.16R
VIDALIA*       LGT RAIN  52  52 100 NE7       30.19F
WAYCROSS*      CLOUDY    57  55  94 E7        30.17R
DOUGLAS*       CLOUDY    55  52  88 NE7       30.19S
$$



USA.gov is the U.S. government's official web portal to all federal, state and local government web resources and services.